Torna al catalogo

FENGYUN 1C DEB

LostPO
NORAD 38785·DEBRIS·🇨🇳 China

Lanciato May 10, 1999 da Taiyuan Satellite Launch Center

Loading…

Prossimi Passaggi (prossime 24 ore)

TLE

ObsoletoSource: Space-Track

Epoca: Feb 15, 2023, 17:51 UTC

1 38785U 99025ETZ 23046.74425456  .00010937  00000-0  59453-2 0  9996
2 38785  98.0227  38.8515 0205707 219.9543 138.6334 14.02221569464773

Traccia FENGYUN 1C DEB in tempo reale con AllMySat

Download on the App Store